Language: 


Des rapports , des résumés tant et plus, au choix de chacun....


Données Historiques de Météogheer
Journalier Rapport pour Décembre 24, 2017 Unitée:  Métrique    Impériale   Les deux
Suivant Jour »
Journalier Hebdomadaire Mensuel Annuel Sur mesure
  Max: Min: Moyenne:
Température: 10.7 °C 8.8 °C 9.9 °C
Point de rosée: 11.0 °C 9.0 °C 9.7 °C
Humidité: 98% 95% 97%
Vent: 31.4km/h 6.9km/h 15.9km/h
Rafales: 36.0km/h - -
Vent- - WSW
Pression: 1030.0 hPa 1019.9 hPa -
Pluie: 0.0 mm    
Historical Graphs
 
 
Données tabulaires pour Décembre 24, 2017
Heure Température Point de rosée Pression Vent Vent Rafales Humidité Pluie Taux (Horaire) Conditions
00:00 10.3 °C 10.0 °C 1030.0 hPa West 21.2 km/h 28.8 km/h 98% 0.0 mm
00:03 10.4 °C 10.0 °C 1030.0 hPa WSW 13.0 km/h 28.8 km/h 98% 0.0 mm
00:08 10.4 °C 10.0 °C 1030.0 hPa WSW 20.1 km/h 28.8 km/h 98% 0.0 mm
00:10 10.4 °C 10.0 °C 1030.0 hPa WSW 12.2 km/h 27.7 km/h 98% 0.0 mm
00:18 10.3 °C 10.0 °C 1030.0 hPa WSW 16.3 km/h 24.8 km/h 98% 0.0 mm
00:23 10.3 °C 10.0 °C 1030.0 hPa WSW 12.6 km/h 21.2 km/h 98% 0.0 mm
00:24 10.3 °C 10.0 °C 1030.0 hPa West 23.8 km/h 23.8 km/h 98% 0.0 mm
00:29 10.3 °C 10.0 °C 1030.0 hPa WSW 14.0 km/h 23.8 km/h 98% 0.0 mm
00:30 10.3 °C 10.0 °C 1030.0 hPa WSW 23.3 km/h 23.8 km/h 98% 0.0 mm
00:31 10.3 °C 10.0 °C 1030.0 hPa West 16.6 km/h 23.8 km/h 98% 0.0 mm
00:36 10.3 °C 10.0 °C 1030.0 hPa WSW 16.9 km/h 27.4 km/h 98% 0.0 mm
00:37 10.3 °C 10.0 °C 1030.0 hPa WSW 20.6 km/h 27.4 km/h 98% 0.0 mm
00:42 10.3 °C 10.0 °C 1030.0 hPa WSW 16.6 km/h 27.4 km/h 98% 0.0 mm
00:43 10.3 °C 10.0 °C 1030.0 hPa WSW 12.2 km/h 25.6 km/h 98% 0.0 mm
00:44 10.3 °C 10.0 °C 1030.0 hPa WSW 11.9 km/h 25.6 km/h 98% 0.0 mm
00:49 10.3 °C 10.0 °C 1030.0 hPa WSW 17.7 km/h 25.6 km/h 98% 0.0 mm
00:54 10.3 °C 10.0 °C 1030.0 hPa West 11.9 km/h 25.3 km/h 98% 0.0 mm
00:59 10.3 °C 10.0 °C 1030.0 hPa WSW 12.2 km/h 25.3 km/h 98% 0.0 mm
01:04 10.2 °C 10.0 °C 1030.0 hPa WSW 16.3 km/h 20.1 km/h 98% 0.0 mm
01:08 10.2 °C 10.0 °C 1030.0 hPa WSW 16.6 km/h 20.9 km/h 98% 0.0 mm
01:10 10.2 °C 10.0 °C 1030.0 hPa WSW 16.6 km/h 20.9 km/h 98% 0.0 mm
01:15 10.2 °C 10.0 °C 1029.0 hPa West 14.0 km/h 20.9 km/h 98% 0.0 mm
01:20 10.2 °C 10.0 °C 1029.0 hPa WSW 20.6 km/h 23.0 km/h 98% 0.0 mm
01:21 10.2 °C 10.0 °C 1029.0 hPa WSW 20.1 km/h 23.0 km/h 98% 0.0 mm
01:26 10.1 °C 10.0 °C 1029.0 hPa West 17.2 km/h 27.7 km/h 98% 0.0 mm
01:29 10.2 °C 10.0 °C 1029.0 hPa WSW 24.5 km/h 27.7 km/h 98% 0.0 mm
01:34 10.2 °C 10.0 °C 1029.0 hPa West 14.0 km/h 27.7 km/h 98% 0.0 mm
01:39 10.2 °C 10.0 °C 1029.0 hPa West 14.0 km/h 24.5 km/h 98% 0.0 mm
01:42 10.2 °C 10.0 °C 1029.0 hPa West 13.0 km/h 24.8 km/h 98% 0.0 mm
01:47 10.2 °C 10.0 °C 1029.0 hPa West 10.1 km/h 24.8 km/h 98% 0.0 mm
01:49 10.2 °C 10.0 °C 1029.0 hPa West 13.0 km/h 24.8 km/h 98% 0.0 mm
01:50 10.2 °C 10.0 °C 1029.0 hPa WSW 11.9 km/h 20.1 km/h 98% 0.0 mm
01:55 10.2 °C 10.0 °C 1029.0 hPa WSW 12.2 km/h 16.9 km/h 98% 0.0 mm
02:00 10.2 °C 10.0 °C 1029.0 hPa WSW 12.6 km/h 16.3 km/h 98% 0.0 mm
02:03 10.2 °C 10.0 °C 1029.0 hPa WSW 6.9 km/h 15.4 km/h 98% 0.0 mm
02:06 10.1 °C 10.0 °C 1029.0 hPa WSW 12.6 km/h 20.1 km/h 98% 0.0 mm
02:11 10.1 °C 10.0 °C 1029.0 hPa WSW 17.7 km/h 20.9 km/h 98% 0.0 mm
02:16 10.1 °C 10.0 °C 1029.0 hPa West 13.0 km/h 20.9 km/h 98% 0.0 mm
02:18 10.1 °C 10.0 °C 1029.0 hPa WSW 16.3 km/h 20.9 km/h 98% 0.0 mm
02:23 10.1 °C 10.0 °C 1029.0 hPa West 12.6 km/h 21.6 km/h 98% 0.0 mm
02:24 10.1 °C 10.0 °C 1029.0 hPa WSW 19.8 km/h 21.6 km/h 98% 0.0 mm
02:29 10.1 °C 10.0 °C 1029.0 hPa WSW 12.6 km/h 21.6 km/h 98% 0.0 mm
02:31 10.1 °C 10.0 °C 1029.0 hPa West 11.9 km/h 19.8 km/h 98% 0.0 mm
02:33 10.1 °C 10.0 °C 1029.0 hPa SW 13.0 km/h 19.8 km/h 98% 0.0 mm
02:38 10.1 °C 10.0 °C 1029.0 hPa WSW 12.2 km/h 19.5 km/h 98% 0.0 mm
02:40 10.1 °C 10.0 °C 1029.0 hPa WSW 12.2 km/h 20.6 km/h 98% 0.0 mm
02:44 10.1 °C 10.0 °C 1029.0 hPa WSW 10.1 km/h 20.6 km/h 98% 0.0 mm
02:46 10.1 °C 10.0 °C 1029.0 hPa WSW 11.9 km/h 20.6 km/h 98% 0.0 mm
02:52 10.1 °C 10.0 °C 1029.0 hPa WSW 9.3 km/h 16.6 km/h 98% 0.0 mm
02:55 10.1 °C 10.0 °C 1029.0 hPa WSW 8.7 km/h 15.8 km/h 98% 0.0 mm
03:00 10.1 °C 10.0 °C 1029.0 hPa WSW 11.9 km/h 15.4 km/h 98% 0.0 mm
03:05 10.1 °C 10.0 °C 1029.0 hPa WSW 13.7 km/h 15.8 km/h 98% 0.0 mm
03:08 10.1 °C 10.0 °C 1029.0 hPa WSW 12.6 km/h 20.9 km/h 98% 0.0 mm
03:10 10.1 °C 10.0 °C 1029.0 hPa WSW 12.6 km/h 20.9 km/h 98% 0.0 mm
03:16 10.1 °C 10.0 °C 1029.0 hPa WSW 10.1 km/h 16.6 km/h 98% 0.0 mm
03:17 10.1 °C 10.0 °C 1029.0 hPa WSW 10.5 km/h 16.6 km/h 98% 0.0 mm
03:22 10.1 °C 10.0 °C 1029.0 hPa WSW 10.5 km/h 16.3 km/h 98% 0.0 mm
03:23 10.1 °C 10.0 °C 1029.0 hPa WSW 10.1 km/h 16.3 km/h 98% 0.0 mm
03:28 10.0 °C 10.0 °C 1029.0 hPa WSW 14.0 km/h 14.0 km/h 98% 0.0 mm
03:31 10.0 °C 10.0 °C 1029.0 hPa WSW 17.2 km/h 17.2 km/h 98% 0.0 mm
03:32 10.0 °C 10.0 °C 1029.0 hPa WSW 13.0 km/h 17.2 km/h 98% 0.0 mm
03:37 10.0 °C 10.0 °C 1029.0 hPa WSW 10.5 km/h 19.1 km/h 98% 0.0 mm
03:39 10.0 °C 10.0 °C 1029.0 hPa WSW 9.3 km/h 19.1 km/h 98% 0.0 mm
03:40 10.0 °C 10.0 °C 1029.0 hPa WSW 9.0 km/h 19.1 km/h 98% 0.0 mm
03:45 10.0 °C 10.0 °C 1029.0 hPa SW 16.9 km/h 16.9 km/h 98% 0.0 mm
03:49 10.0 °C 10.0 °C 1029.0 hPa WSW 6.9 km/h 19.8 km/h 98% 0.0 mm
03:52 10.0 °C 10.0 °C 1029.0 hPa WSW 16.6 km/h 19.8 km/h 98% 0.0 mm
03:57 10.0 °C 10.0 °C 1029.0 hPa WSW 17.7 km/h 23.8 km/h 98% 0.0 mm
03:59 10.0 °C 10.0 °C 1029.0 hPa WSW 16.3 km/h 23.8 km/h 98% 0.0 mm
04:04 10.1 °C 10.0 °C 1029.0 hPa WSW 13.7 km/h 23.0 km/h 98% 0.0 mm
04:08 10.0 °C 10.0 °C 1029.0 hPa WSW 19.8 km/h 20.1 km/h 98% 0.0 mm
04:13 10.0 °C 10.0 °C 1029.0 hPa WSW 17.7 km/h 20.1 km/h 98% 0.0 mm
04:17 10.0 °C 10.0 °C 1029.0 hPa WSW 20.1 km/h 20.1 km/h 98% 0.0 mm
04:22 10.0 °C 10.0 °C 1029.0 hPa WSW 19.1 km/h 24.5 km/h 98% 0.0 mm
04:23 10.0 °C 10.0 °C 1029.0 hPa West 16.3 km/h 24.5 km/h 98% 0.0 mm
04:27 10.0 °C 10.0 °C 1028.0 hPa West 19.5 km/h 25.9 km/h 98% 0.0 mm
04:29 10.0 °C 10.0 °C 1028.0 hPa West 17.2 km/h 25.9 km/h 98% 0.0 mm
04:34 10.1 °C 10.0 °C 1028.0 hPa West 17.2 km/h 25.9 km/h 98% 0.0 mm
04:39 10.1 °C 10.0 °C 1028.0 hPa WSW 13.0 km/h 24.5 km/h 98% 0.0 mm
04:43 10.1 °C 10.0 °C 1028.0 hPa WSW 14.0 km/h 22.7 km/h 98% 0.0 mm
04:46 10.1 °C 10.0 °C 1028.0 hPa West 17.2 km/h 22.7 km/h 98% 0.0 mm
04:51 10.1 °C 10.0 °C 1028.0 hPa WSW 11.9 km/h 20.9 km/h 98% 0.0 mm
04:53 10.1 °C 10.0 °C 1028.0 hPa West 16.9 km/h 20.9 km/h 98% 0.0 mm
04:58 10.1 °C 10.0 °C 1028.0 hPa WSW 12.2 km/h 28.5 km/h 98% 0.0 mm
04:59 10.1 °C 10.0 °C 1028.0 hPa WSW 12.2 km/h 28.5 km/h 98% 0.0 mm
05:04 10.1 °C 10.0 °C 1028.0 hPa WSW 16.6 km/h 28.5 km/h 98% 0.0 mm
05:09 10.0 °C 10.0 °C 1028.0 hPa WSW 16.6 km/h 25.9 km/h 98% 0.0 mm
05:12 10.1 °C 10.0 °C 1028.0 hPa West 23.8 km/h 25.9 km/h 98% 0.0 mm
05:17 10.1 °C 10.0 °C 1028.0 hPa WSW 16.3 km/h 25.9 km/h 98% 0.0 mm
05:18 10.1 °C 10.0 °C 1028.0 hPa West 13.0 km/h 23.8 km/h 98% 0.0 mm
05:23 10.1 °C 10.0 °C 1028.0 hPa West 10.1 km/h 25.3 km/h 98% 0.0 mm
05:25 10.1 °C 10.0 °C 1028.0 hPa West 22.4 km/h 25.3 km/h 98% 0.0 mm
05:30 10.1 °C 10.0 °C 1027.0 hPa WSW 18.0 km/h 24.8 km/h 98% 0.0 mm
05:34 10.1 °C 10.0 °C 1027.0 hPa WSW 13.7 km/h 24.8 km/h 98% 0.0 mm
05:35 10.1 °C 10.0 °C 1027.0 hPa WSW 10.1 km/h 24.8 km/h 98% 0.0 mm
05:40 10.1 °C 10.0 °C 1026.0 hPa WSW 20.1 km/h 25.3 km/h 98% 0.0 mm
05:43 10.1 °C 10.0 °C 1026.0 hPa WSW 16.6 km/h 25.3 km/h 98% 0.0 mm
05:48 10.1 °C 10.0 °C 1026.0 hPa WSW 16.3 km/h 25.3 km/h 98% 0.0 mm
05:50 10.1 °C 10.0 °C 1026.0 hPa WSW 13.7 km/h 25.3 km/h 98% 0.0 mm
05:54 10.0 °C 10.0 °C 1026.0 hPa WSW 13.7 km/h 20.9 km/h 98% 0.0 mm
05:56 10.0 °C 10.0 °C 1026.0 hPa West 24.5 km/h 24.5 km/h 98% 0.0 mm
06:01 10.1 °C 10.0 °C 1027.0 hPa WSW 17.2 km/h 27.4 km/h 98% 0.0 mm
06:06 10.1 °C 10.0 °C 1027.0 hPa West 20.6 km/h 36.0 km/h 98% 0.0 mm
06:12 10.1 °C 10.0 °C 1026.0 hPa WSW 20.1 km/h 36.0 km/h 97% 0.0 mm
06:13 10.1 °C 10.0 °C 1026.0 hPa West 14.0 km/h 31.4 km/h 97% 0.0 mm
06:18 10.1 °C 10.0 °C 1026.0 hPa West 13.7 km/h 25.3 km/h 97% 0.0 mm
06:20 10.1 °C 10.0 °C 1026.0 hPa WSW 12.6 km/h 25.3 km/h 97% 0.0 mm
06:23 10.1 °C 10.0 °C 1026.0 hPa WSW 27.4 km/h 32.0 km/h 97% 0.0 mm
06:27 10.1 °C 10.0 °C 1026.0 hPa WSW 17.2 km/h 32.0 km/h 97% 0.0 mm
06:32 10.1 °C 10.0 °C 1026.0 hPa SW 17.7 km/h 32.0 km/h 97% 0.0 mm
06:37 10.1 °C 10.0 °C 1026.0 hPa WSW 23.3 km/h 35.2 km/h 97% 0.0 mm
06:41 10.1 °C 10.0 °C 1026.0 hPa WSW 13.0 km/h 35.2 km/h 97% 0.0 mm
06:42 10.1 °C 10.0 °C 1026.0 hPa West 17.7 km/h 35.2 km/h 97% 0.0 mm
06:47 10.1 °C 10.0 °C 1026.0 hPa WSW 21.2 km/h 28.5 km/h 97% 0.0 mm
06:48 10.1 °C 10.0 °C 1026.0 hPa WSW 31.4 km/h 31.4 km/h 97% 0.0 mm
06:52 10.1 °C 10.0 °C 1026.0 hPa WSW 26.7 km/h 32.3 km/h 97% 0.0 mm
06:57 10.1 °C 10.0 °C 1027.0 hPa West 28.8 km/h 32.3 km/h 98% 0.0 mm
07:00 10.1 °C 10.0 °C 1027.0 hPa West 27.7 km/h 31.4 km/h 98% 0.0 mm
07:05 10.1 °C 10.0 °C 1027.0 hPa West 17.7 km/h 29.9 km/h 98% 0.0 mm
07:06 10.1 °C 10.0 °C 1027.0 hPa West 17.7 km/h 29.9 km/h 98% 0.0 mm
07:11 10.1 °C 10.0 °C 1027.0 hPa WSW 22.7 km/h 31.7 km/h 98% 0.0 mm
07:17 10.2 °C 10.0 °C 1027.0 hPa West 25.6 km/h 33.1 km/h 97% 0.0 mm
07:20 10.2 °C 10.0 °C 1027.0 hPa WSW 10.1 km/h 33.1 km/h 97% 0.0 mm
07:25 10.2 °C 10.0 °C 1027.0 hPa WSW 17.2 km/h 33.1 km/h 97% 0.0 mm
07:30 10.2 °C 10.0 °C 1027.0 hPa WSW 17.2 km/h 27.4 km/h 97% 0.0 mm
07:31 10.2 °C 10.0 °C 1027.0 hPa West 17.7 km/h 27.4 km/h 97% 0.0 mm
07:35 10.2 °C 10.0 °C 1027.0 hPa WSW 21.6 km/h 27.4 km/h 97% 0.0 mm
07:37 10.2 °C 10.0 °C 1027.0 hPa WSW 20.1 km/h 27.4 km/h 97% 0.0 mm
07:40 10.2 °C 10.0 °C 1027.0 hPa West 17.7 km/h 23.3 km/h 97% 0.0 mm
07:42 10.2 °C 10.0 °C 1026.0 hPa West 17.2 km/h 23.3 km/h 97% 0.0 mm
07:47 10.2 °C 10.0 °C 1026.0 hPa West 16.3 km/h 24.5 km/h 97% 0.0 mm
07:48 10.2 °C 10.0 °C 1026.0 hPa WSW 12.2 km/h 24.5 km/h 97% 0.0 mm
07:53 10.3 °C 10.0 °C 1026.0 hPa WSW 16.9 km/h 24.5 km/h 97% 0.0 mm
07:58 10.3 °C 10.0 °C 1027.0 hPa WSW 20.6 km/h 23.3 km/h 97% 0.0 mm
07:59 10.3 °C 10.0 °C 1027.0 hPa West 14.0 km/h 23.3 km/h 97% 0.0 mm
08:04 10.3 °C 10.0 °C 1027.0 hPa SW 20.9 km/h 32.0 km/h 97% 0.0 mm
08:05 10.3 °C 10.0 °C 1027.0 hPa West 19.5 km/h 32.0 km/h 97% 0.0 mm
08:10 10.3 °C 10.0 °C 1027.0 hPa WNW 13.7 km/h 32.0 km/h 97% 0.0 mm
08:12 10.3 °C 10.0 °C 1027.0 hPa WSW 20.9 km/h 21.2 km/h 97% 0.0 mm
08:15 10.3 °C 10.0 °C 1027.0 hPa WSW 15.1 km/h 24.5 km/h 96% 0.0 mm
08:18 10.3 °C 10.0 °C 1027.0 hPa West 20.6 km/h 24.5 km/h 96% 0.0 mm
08:22 10.3 °C 10.0 °C 1027.0 hPa West 11.9 km/h 24.5 km/h 96% 0.0 mm
08:24 10.3 °C 10.0 °C 1027.0 hPa West 19.8 km/h 23.8 km/h 96% 0.0 mm
08:29 10.3 °C 10.0 °C 1027.0 hPa WSW 17.2 km/h 22.4 km/h 96% 0.0 mm
08:30 10.3 °C 10.0 °C 1027.0 hPa WSW 20.6 km/h 22.4 km/h 96% 0.0 mm
08:35 10.3 °C 10.0 °C 1027.0 hPa WSW 16.9 km/h 26.2 km/h 97% 0.0 mm
08:37 10.3 °C 10.0 °C 1027.0 hPa WSW 23.3 km/h 26.2 km/h 97% 0.0 mm
08:41 10.3 °C 10.0 °C 1027.0 hPa WSW 20.9 km/h 24.5 km/h 97% 0.0 mm
08:43 10.3 °C 10.0 °C 1027.0 hPa WSW 16.3 km/h 24.5 km/h 97% 0.0 mm
08:45 10.3 °C 10.0 °C 1027.0 hPa WSW 15.8 km/h 24.5 km/h 97% 0.0 mm
08:50 10.2 °C 10.0 °C 1027.0 hPa West 20.9 km/h 22.4 km/h 97% 0.0 mm
08:51 10.2 °C 10.0 °C 1027.0 hPa WSW 18.0 km/h 21.6 km/h 97% 0.0 mm
08:52 10.2 °C 10.0 °C 1027.0 hPa West 14.3 km/h 21.2 km/h 97% 0.0 mm
08:59 10.2 °C 10.0 °C 1026.0 hPa WSW 16.6 km/h 27.7 km/h 97% 0.0 mm
09:04 10.2 °C 10.0 °C 1026.0 hPa West 13.7 km/h 27.7 km/h 97% 0.0 mm
09:05 10.2 °C 10.0 °C 1026.0 hPa WSW 16.9 km/h 27.7 km/h 97% 0.0 mm
09:09 10.3 °C 10.0 °C 1026.0 hPa WSW 15.8 km/h 24.8 km/h 97% 0.0 mm
09:12 10.3 °C 10.0 °C 1027.0 hPa WSW 21.9 km/h 26.2 km/h 97% 0.0 mm
09:17 10.3 °C 10.0 °C 1027.0 hPa West 24.8 km/h 27.4 km/h 97% 0.0 mm
09:18 10.3 °C 10.0 °C 1027.0 hPa WSW 16.6 km/h 27.4 km/h 97% 0.0 mm
09:22 10.3 °C 10.0 °C 1027.0 hPa WSW 16.3 km/h 27.4 km/h 97% 0.0 mm
09:23 10.3 °C 10.0 °C 1027.0 hPa WSW 22.7 km/h 26.2 km/h 97% 0.0 mm
09:28 10.4 °C 10.0 °C 1027.0 hPa WSW 19.1 km/h 26.2 km/h 97% 0.0 mm
09:30 10.4 °C 10.0 °C 1027.0 hPa WSW 14.3 km/h 26.2 km/h 97% 0.0 mm
09:35 10.4 °C 10.0 °C 1027.0 hPa West 12.6 km/h 21.2 km/h 97% 0.0 mm
09:37 10.4 °C 10.0 °C 1027.0 hPa WSW 14.3 km/h 20.1 km/h 97% 0.0 mm
09:42 10.3 °C 10.0 °C 1027.0 hPa West 13.7 km/h 20.1 km/h 97% 0.0 mm
09:44 10.3 °C 10.0 °C 1027.0 hPa WSW 20.1 km/h 20.9 km/h 97% 0.0 mm
09:47 10.3 °C 10.0 °C 1027.0 hPa WSW 13.7 km/h 20.9 km/h 98% 0.0 mm
09:52 10.3 °C 10.0 °C 1027.0 hPa WSW 16.3 km/h 25.3 km/h 98% 0.0 mm
09:56 10.3 °C 10.0 °C 1027.0 hPa WSW 14.0 km/h 25.3 km/h 98% 0.0 mm
10:01 10.3 °C 10.0 °C 1027.0 hPa WSW 15.8 km/h 23.3 km/h 98% 0.0 mm
10:06 10.3 °C 10.0 °C 1027.0 hPa WSW 20.1 km/h 23.8 km/h 98% 0.0 mm
10:07 10.3 °C 10.0 °C 1027.0 hPa WSW 15.8 km/h 23.8 km/h 98% 0.0 mm
10:12 10.3 °C 10.0 °C 1027.0 hPa WSW 11.9 km/h 23.8 km/h 98% 0.0 mm
10:13 10.3 °C 10.0 °C 1027.0 hPa WSW 13.7 km/h 23.8 km/h 98% 0.0 mm
10:18 10.3 °C 10.0 °C 1027.0 hPa WSW 19.8 km/h 21.6 km/h 98% 0.0 mm
10:20 10.3 °C 10.0 °C 1027.0 hPa SW 16.9 km/h 21.6 km/h 98% 0.0 mm
10:21 10.3 °C 10.0 °C 1027.0 hPa WSW 10.5 km/h 21.6 km/h 98% 0.0 mm
10:26 10.3 °C 10.0 °C 1027.0 hPa WSW 17.2 km/h 21.6 km/h 98% 0.0 mm
10:33 10.3 °C 10.0 °C 1027.0 hPa WSW 20.6 km/h 23.8 km/h 98% 0.0 mm
10:34 10.3 °C 10.0 °C 1027.0 hPa SW 12.6 km/h 23.8 km/h 98% 0.0 mm
10:39 10.3 °C 10.0 °C 1027.0 hPa WSW 17.2 km/h 23.8 km/h 98% 0.0 mm
10:41 10.3 °C 10.0 °C 1027.0 hPa WSW 16.3 km/h 23.8 km/h 98% 0.0 mm
10:46 10.3 °C 10.0 °C 1027.0 hPa WSW 21.2 km/h 26.7 km/h 98% 0.0 mm
10:47 10.3 °C 10.0 °C 1027.0 hPa SW 12.6 km/h 26.7 km/h 98% 0.0 mm
10:49 10.3 °C 10.0 °C 1027.0 hPa WSW 20.9 km/h 26.7 km/h 98% 0.0 mm
10:54 10.3 °C 10.0 °C 1027.0 hPa WSW 21.2 km/h 24.5 km/h 98% 0.0 mm
10:55 10.3 °C 10.0 °C 1027.0 hPa WSW 20.6 km/h 24.5 km/h 98% 0.0 mm
11:00 10.3 °C 10.0 °C 1027.0 hPa WSW 17.2 km/h 27.4 km/h 98% 0.0 mm
11:05 10.3 °C 10.0 °C 1027.0 hPa WSW 20.9 km/h 27.4 km/h 98% 0.0 mm
11:10 10.3 °C 10.0 °C 1027.0 hPa WSW 15.4 km/h 24.8 km/h 98% 0.0 mm
11:12 10.3 °C 10.0 °C 1027.0 hPa WSW 20.9 km/h 24.8 km/h 98% 0.0 mm
11:14 10.3 °C 10.0 °C 1027.0 hPa WSW 17.7 km/h 24.5 km/h 98% 0.0 mm
11:19 10.4 °C 10.0 °C 1027.0 hPa WSW 17.2 km/h 21.2 km/h 98% 0.0 mm
11:22 10.4 °C 10.0 °C 1027.0 hPa WSW 16.6 km/h 21.2 km/h 98% 0.0 mm
11:23 10.4 °C 10.0 °C 1027.0 hPa WSW 16.6 km/h 21.2 km/h 98% 0.0 mm
11:28 10.4 °C 10.0 °C 1027.0 hPa WSW 17.2 km/h 28.0 km/h 98% 0.0 mm
11:33 10.5 °C 11.0 °C 1027.0 hPa WSW 20.6 km/h 28.0 km/h 98% 0.0 mm
11:38 10.5 °C 11.0 °C 1027.0 hPa West 15.4 km/h 23.3 km/h 98% 0.0 mm
11:43 10.5 °C 11.0 °C 1027.0 hPa WSW 14.0 km/h 23.3 km/h 98% 0.0 mm
11:48 10.6 °C 11.0 °C 1027.0 hPa WSW 14.0 km/h 26.7 km/h 98% 0.0 mm
11:51 10.5 °C 11.0 °C 1027.0 hPa WSW 19.1 km/h 26.7 km/h 98% 0.0 mm
11:56 10.6 °C 11.0 °C 1027.0 hPa WSW 20.9 km/h 23.8 km/h 98% 0.0 mm
11:57 10.6 °C 11.0 °C 1027.0 hPa WSW 16.9 km/h 23.8 km/h 98% 0.0 mm
12:02 10.6 °C 11.0 °C 1027.0 hPa SW 16.3 km/h 24.5 km/h 98% 0.0 mm
12:03 10.6 °C 11.0 °C 1027.0 hPa WSW 16.3 km/h 24.5 km/h 98% 0.0 mm
12:08 10.6 °C 11.0 °C 1027.0 hPa WSW 18.0 km/h 27.7 km/h 98% 0.0 mm
12:09 10.6 °C 11.0 °C 1027.0 hPa WSW 16.3 km/h 27.7 km/h 98% 0.0 mm
12:14 10.6 °C 11.0 °C 1026.0 hPa WSW 13.0 km/h 28.8 km/h 98% 0.0 mm
12:19 10.6 °C 11.0 °C 1026.0 hPa West 14.0 km/h 28.8 km/h 98% 0.0 mm
12:21 10.6 °C 11.0 °C 1026.0 hPa WSW 16.6 km/h 21.9 km/h 98% 0.0 mm
12:25 10.7 °C 11.0 °C 1026.0 hPa WSW 12.6 km/h 21.2 km/h 98% 0.0 mm
12:30 10.7 °C 11.0 °C 1026.0 hPa WSW 16.3 km/h 22.4 km/h 98% 0.0 mm
12:35 10.7 °C 11.0 °C 1026.0 hPa WSW 21.9 km/h 24.5 km/h 98% 0.0 mm
12:40 10.7 °C 11.0 °C 1026.0 hPa WSW 17.2 km/h 28.5 km/h 98% 0.0 mm
12:45 10.7 °C 11.0 °C 1026.0 hPa WSW 14.0 km/h 28.5 km/h 98% 0.0 mm
12:50 10.7 °C 11.0 °C 1026.0 hPa WSW 17.2 km/h 24.5 km/h 98% 0.0 mm
12:55 10.7 °C 10.0 °C 1026.0 hPa WSW 15.8 km/h 25.3 km/h 97% 0.0 mm
12:56 10.7 °C 10.0 °C 1026.0 hPa WSW 21.9 km/h 25.3 km/h 97% 0.0 mm
13:00 10.7 °C 10.0 °C 1026.0 hPa WSW 21.2 km/h 26.7 km/h 97% 0.0 mm
13:02 10.7 °C 10.0 °C 1026.0 hPa WSW 18.3 km/h 26.7 km/h 97% 0.0 mm
13:07 10.6 °C 10.0 °C 1026.0 hPa WSW 20.9 km/h 25.6 km/h 97% 0.0 mm
13:09 10.6 °C 10.0 °C 1026.0 hPa WSW 24.8 km/h 25.6 km/h 97% 0.0 mm
13:14 10.6 °C 10.0 °C 1026.0 hPa WSW 16.9 km/h 28.5 km/h 96% 0.0 mm
13:15 10.6 °C 10.0 °C 1026.0 hPa West 16.6 km/h 28.5 km/h 96% 0.0 mm
13:20 10.6 °C 10.0 °C 1026.0 hPa WSW 20.9 km/h 28.5 km/h 96% 0.0 mm
13:22 10.6 °C 10.0 °C 1026.0 hPa WSW 20.6 km/h 27.4 km/h 96% 0.0 mm
13:23 10.6 °C 10.0 °C 1026.0 hPa WSW 19.1 km/h 27.4 km/h 96% 0.0 mm
13:28 10.5 °C 10.0 °C 1024.9 hPa WSW 17.7 km/h 31.7 km/h 96% 0.0 mm
13:33 10.6 °C 10.0 °C 1024.9 hPa WSW 12.6 km/h 31.7 km/h 96% 0.0 mm
13:34 10.6 °C 10.0 °C 1024.9 hPa WSW 20.6 km/h 31.7 km/h 96% 0.0 mm
13:39 10.6 °C 10.0 °C 1024.9 hPa SW 12.2 km/h 21.2 km/h 96% 0.0 mm
13:40 10.6 °C 10.0 °C 1024.9 hPa WSW 25.3 km/h 25.3 km/h 96% 0.0 mm
13:45 10.5 °C 10.0 °C 1024.9 hPa WSW 18.0 km/h 25.3 km/h 96% 0.0 mm
13:50 10.5 °C 10.0 °C 1024.9 hPa West 20.1 km/h 25.3 km/h 96% 0.0 mm
13:53 10.5 °C 10.0 °C 1024.9 hPa WSW 21.6 km/h 24.8 km/h 96% 0.0 mm
13:58 10.4 °C 10.0 °C 1023.9 hPa WSW 23.3 km/h 28.8 km/h 95% 0.0 mm
14:01 10.4 °C 10.0 °C 1023.9 hPa WSW 18.3 km/h 28.8 km/h 95% 0.0 mm
14:03 10.4 °C 10.0 °C 1023.9 hPa WSW 16.6 km/h 28.8 km/h 96% 0.0 mm
14:07 10.4 °C 10.0 °C 1023.9 hPa WSW 19.5 km/h 28.5 km/h 95% 0.0 mm
14:10 10.5 °C 10.0 °C 1023.9 hPa WSW 16.3 km/h 27.7 km/h 95% 0.0 mm
14:12 10.5 °C 10.0 °C 1023.9 hPa WSW 16.9 km/h 27.7 km/h 95% 0.0 mm
14:17 10.5 °C 10.0 °C 1023.9 hPa WSW 16.3 km/h 27.0 km/h 95% 0.0 mm
14:20 10.5 °C 10.0 °C 1023.9 hPa WSW 16.3 km/h 27.0 km/h 95% 0.0 mm
14:25 10.5 °C 10.0 °C 1023.9 hPa WSW 19.1 km/h 22.4 km/h 95% 0.0 mm
14:26 10.5 °C 10.0 °C 1023.9 hPa SW 15.8 km/h 22.4 km/h 95% 0.0 mm
14:29 10.5 °C 10.0 °C 1023.9 hPa WSW 13.7 km/h 22.4 km/h 95% 0.0 mm
14:33 10.4 °C 10.0 °C 1023.9 hPa WSW 17.7 km/h 23.3 km/h 95% 0.0 mm
14:38 10.4 °C 10.0 °C 1023.9 hPa West 16.6 km/h 27.4 km/h 96% 0.0 mm
14:43 10.3 °C 10.0 °C 1024.9 hPa West 21.2 km/h 27.4 km/h 95% 0.0 mm
14:46 10.3 °C 10.0 °C 1024.9 hPa WSW 13.0 km/h 24.8 km/h 95% 0.0 mm
14:51 10.3 °C 10.0 °C 1024.9 hPa WSW 15.8 km/h 24.8 km/h 95% 0.0 mm
14:53 10.3 °C 10.0 °C 1024.9 hPa SW 14.3 km/h 24.8 km/h 95% 0.0 mm
14:56 10.3 °C 10.0 °C 1024.9 hPa SW 15.8 km/h 20.6 km/h 95% 0.0 mm
15:01 10.3 °C 10.0 °C 1024.9 hPa SW 13.7 km/h 22.4 km/h 95% 0.0 mm
15:06 10.3 °C 10.0 °C 1024.9 hPa SW 21.2 km/h 22.4 km/h 95% 0.0 mm
15:13 10.2 °C 10.0 °C 1023.9 hPa WSW 15.4 km/h 21.2 km/h 95% 0.0 mm
15:18 10.1 °C 9.0 °C 1023.9 hPa WSW 11.9 km/h 21.2 km/h 95% 0.0 mm
15:20 10.1 °C 9.0 °C 1023.9 hPa WSW 16.9 km/h 20.9 km/h 95% 0.0 mm
15:25 10.1 °C 9.0 °C 1023.9 hPa WSW 14.0 km/h 20.9 km/h 95% 0.0 mm
15:28 10.0 °C 9.0 °C 1023.9 hPa SW 10.1 km/h 20.9 km/h 95% 0.0 mm
15:30 10.0 °C 9.0 °C 1023.9 hPa WSW 19.8 km/h 20.9 km/h 95% 0.0 mm
15:37 9.9 °C 9.0 °C 1023.9 hPa SW 15.1 km/h 27.7 km/h 95% 0.0 mm
15:42 9.9 °C 9.0 °C 1024.9 hPa WSW 22.7 km/h 27.7 km/h 95% 0.0 mm
15:47 9.8 °C 9.0 °C 1024.9 hPa WSW 13.7 km/h 25.6 km/h 95% 0.0 mm
15:50 9.8 °C 9.0 °C 1024.9 hPa WSW 14.0 km/h 25.6 km/h 96% 0.0 mm
15:52 9.8 °C 9.0 °C 1024.9 hPa WSW 16.6 km/h 21.2 km/h 96% 0.0 mm
15:57 9.7 °C 9.0 °C 1024.9 hPa WSW 20.9 km/h 27.7 km/h 96% 0.0 mm
16:00 9.7 °C 9.0 °C 1024.9 hPa SW 20.9 km/h 27.7 km/h 95% 0.0 mm
16:05 9.6 °C 9.0 °C 1024.9 hPa West 24.8 km/h 32.0 km/h 95% 0.0 mm
16:10 9.5 °C 9.0 °C 1024.9 hPa WSW 23.3 km/h 32.0 km/h 95% 0.0 mm
16:11 9.5 °C 9.0 °C 1024.9 hPa WSW 20.6 km/h 32.0 km/h 95% 0.0 mm
16:16 9.5 °C 9.0 °C 1024.9 hPa WSW 14.0 km/h 24.5 km/h 95% 0.0 mm
16:19 9.4 °C 9.0 °C 1024.9 hPa WSW 17.2 km/h 24.5 km/h 95% 0.0 mm
16:21 9.4 °C 9.0 °C 1024.9 hPa WSW 16.3 km/h 21.2 km/h 95% 0.0 mm
16:26 9.4 °C 9.0 °C 1024.9 hPa WSW 16.3 km/h 21.2 km/h 95% 0.0 mm
16:27 9.4 °C 9.0 °C 1024.9 hPa WSW 9.7 km/h 21.2 km/h 95% 0.0 mm
16:29 9.4 °C 9.0 °C 1024.9 hPa WSW 16.9 km/h 21.2 km/h 95% 0.0 mm
16:34 9.3 °C 9.0 °C 1024.9 hPa WSW 20.6 km/h 24.5 km/h 96% 0.0 mm
16:36 9.3 °C 9.0 °C 1024.9 hPa WSW 16.3 km/h 24.5 km/h 96% 0.0 mm
16:37 9.3 °C 9.0 °C 1024.9 hPa WSW 13.7 km/h 24.5 km/h 96% 0.0 mm
16:42 9.3 °C 9.0 °C 1024.9 hPa WSW 15.8 km/h 24.5 km/h 96% 0.0 mm
16:46 9.3 °C 9.0 °C 1024.9 hPa West 13.7 km/h 21.2 km/h 96% 0.0 mm
16:51 9.3 °C 9.0 °C 1024.9 hPa West 19.1 km/h 21.2 km/h 96% 0.0 mm
16:53 9.2 °C 9.0 °C 1024.9 hPa SSW 19.8 km/h 25.3 km/h 96% 0.0 mm
17:00 9.2 °C 9.0 °C 1023.9 hPa WSW 16.6 km/h 25.3 km/h 96% 0.0 mm
17:05 9.2 °C 9.0 °C 1023.9 hPa WSW 17.2 km/h 20.9 km/h 96% 0.0 mm
17:06 9.2 °C 9.0 °C 1023.9 hPa SW 21.6 km/h 21.6 km/h 96% 0.0 mm
17:10 9.2 °C 9.0 °C 1023.9 hPa WSW 18.3 km/h 21.6 km/h 96% 0.0 mm
17:12 9.2 °C 9.0 °C 1023.9 hPa WSW 19.5 km/h 22.4 km/h 96% 0.0 mm
17:17 9.2 °C 9.0 °C 1023.9 hPa West 17.7 km/h 23.8 km/h 95% 0.0 mm
17:22 9.2 °C 9.0 °C 1023.9 hPa WSW 15.4 km/h 28.5 km/h 95% 0.0 mm
17:27 9.2 °C 9.0 °C 1022.9 hPa SW 23.8 km/h 28.5 km/h 95% 0.0 mm
17:29 9.2 °C 9.0 °C 1022.9 hPa WSW 15.8 km/h 23.8 km/h 95% 0.0 mm
17:34 9.1 °C 9.0 °C 1022.9 hPa SSW 20.1 km/h 27.0 km/h 95% 0.0 mm
17:35 9.1 °C 9.0 °C 1022.9 hPa WSW 16.3 km/h 27.0 km/h 95% 0.0 mm
17:40 9.0 °C 9.0 °C 1022.9 hPa WSW 20.6 km/h 27.0 km/h 96% 0.0 mm
17:45 8.9 °C 9.0 °C 1022.9 hPa SW 16.6 km/h 23.8 km/h 96% 0.0 mm
17:48 8.9 °C 9.0 °C 1022.9 hPa WSW 20.1 km/h 21.9 km/h 97% 0.0 mm
17:52 8.9 °C 9.0 °C 1022.9 hPa SSW 13.0 km/h 21.9 km/h 97% 0.0 mm
17:57 8.9 °C 9.0 °C 1022.9 hPa SSW 16.9 km/h 21.9 km/h 97% 0.0 mm
18:02 8.9 °C 9.0 °C 1022.9 hPa WSW 15.4 km/h 21.9 km/h 97% 0.0 mm
18:05 8.9 °C 9.0 °C 1022.9 hPa West 11.9 km/h 21.9 km/h 97% 0.0 mm
18:10 8.9 °C 9.0 °C 1022.9 hPa SW 16.9 km/h 25.9 km/h 97% 0.0 mm
18:11 8.9 °C 9.0 °C 1022.9 hPa SW 12.6 km/h 25.9 km/h 97% 0.0 mm
18:16 8.9 °C 9.0 °C 1022.9 hPa SW 12.6 km/h 25.9 km/h 97% 0.0 mm
18:18 8.9 °C 9.0 °C 1022.9 hPa SW 20.9 km/h 25.9 km/h 97% 0.0 mm
18:23 8.9 °C 9.0 °C 1022.9 hPa WSW 16.6 km/h 21.2 km/h 97% 0.0 mm
18:24 8.9 °C 9.0 °C 1022.9 hPa SW 22.7 km/h 22.7 km/h 97% 0.0 mm
18:29 8.9 °C 9.0 °C 1022.9 hPa SW 11.9 km/h 22.7 km/h 97% 0.0 mm
18:34 8.9 °C 9.0 °C 1022.9 hPa WSW 16.9 km/h 22.7 km/h 97% 0.0 mm
18:42 8.8 °C 9.0 °C 1021.9 hPa SSW 16.6 km/h 24.5 km/h 98% 0.0 mm
18:43 8.8 °C 9.0 °C 1021.9 hPa WSW 18.3 km/h 24.5 km/h 98% 0.0 mm
18:44 8.8 °C 9.0 °C 1021.9 hPa WSW 20.9 km/h 24.5 km/h 98% 0.0 mm
18:49 8.8 °C 9.0 °C 1021.9 hPa WSW 12.6 km/h 21.2 km/h 98% 0.0 mm
18:50 8.8 °C 9.0 °C 1021.9 hPa SW 21.2 km/h 21.2 km/h 98% 0.0 mm
18:55 8.8 °C 9.0 °C 1021.9 hPa WSW 10.5 km/h 21.2 km/h 98% 0.0 mm
19:00 8.8 °C 9.0 °C 1021.9 hPa SW 12.2 km/h 20.1 km/h 98% 0.0 mm
19:03 8.8 °C 9.0 °C 1021.9 hPa SW 9.3 km/h 17.2 km/h 98% 0.0 mm
19:08 8.8 °C 9.0 °C 1021.9 hPa WSW 14.0 km/h 16.9 km/h 98% 0.0 mm
19:11 8.8 °C 9.0 °C 1021.9 hPa SSW 11.9 km/h 16.9 km/h 98% 0.0 mm
19:14 8.8 °C 9.0 °C 1021.9 hPa SW 10.5 km/h 16.9 km/h 98% 0.0 mm
19:19 8.8 °C 9.0 °C 1021.9 hPa WSW 12.2 km/h 15.8 km/h 98% 0.0 mm
19:23 8.8 °C 9.0 °C 1021.9 hPa WSW 10.1 km/h 18.0 km/h 98% 0.0 mm
19:28 8.8 °C 9.0 °C 1022.9 hPa SW 10.5 km/h 18.0 km/h 98% 0.0 mm
19:29 8.8 °C 9.0 °C 1022.9 hPa SSW 17.2 km/h 18.0 km/h 98% 0.0 mm
19:34 8.9 °C 9.0 °C 1022.9 hPa WSW 11.6 km/h 21.2 km/h 98% 0.0 mm
19:36 8.9 °C 9.0 °C 1022.9 hPa WSW 9.7 km/h 21.2 km/h 98% 0.0 mm
19:41 8.9 °C 9.0 °C 1022.9 hPa WSW 13.7 km/h 21.2 km/h 98% 0.0 mm
19:46 9.0 °C 9.0 °C 1022.9 hPa SW 14.0 km/h 21.6 km/h 98% 0.0 mm
19:47 9.0 °C 9.0 °C 1022.9 hPa WSW 16.3 km/h 21.6 km/h 98% 0.0 mm
19:48 9.0 °C 9.0 °C 1022.9 hPa WSW 13.7 km/h 21.6 km/h 98% 0.0 mm
19:52 9.0 °C 9.0 °C 1022.9 hPa SW 17.7 km/h 21.6 km/h 98% 0.0 mm
19:57 9.0 °C 9.0 °C 1023.9 hPa WSW 10.1 km/h 18.0 km/h 98% 0.0 mm
19:58 9.0 °C 9.0 °C 1023.9 hPa SW 13.0 km/h 18.0 km/h 98% 0.0 mm
20:03 9.0 °C 9.0 °C 1023.9 hPa WSW 15.8 km/h 18.0 km/h 98% 0.0 mm
20:04 9.0 °C 9.0 °C 1023.9 hPa SSW 10.5 km/h 18.0 km/h 98% 0.0 mm
20:05 9.0 °C 9.0 °C 1023.9 hPa SSW 9.3 km/h 18.0 km/h 98% 0.0 mm
20:10 8.9 °C 9.0 °C 1023.9 hPa SW 10.1 km/h 17.7 km/h 98% 0.0 mm
20:12 8.9 °C 9.0 °C 1022.9 hPa WSW 10.5 km/h 16.3 km/h 98% 0.0 mm
20:13 8.9 °C 9.0 °C 1022.9 hPa SSW 11.6 km/h 16.3 km/h 98% 0.0 mm
20:18 8.9 °C 9.0 °C 1022.9 hPa SSW 10.1 km/h 15.8 km/h 98% 0.0 mm
20:23 8.9 °C 9.0 °C 1022.9 hPa WSW 11.6 km/h 15.8 km/h 98% 0.0 mm
20:24 8.9 °C 9.0 °C 1022.9 hPa SW 9.3 km/h 16.6 km/h 98% 0.0 mm
20:26 8.8 °C 9.0 °C 1022.9 hPa SW 12.6 km/h 16.6 km/h 98% 0.0 mm
20:34 8.8 °C 9.0 °C 1022.9 hPa SW 13.0 km/h 16.9 km/h 98% 0.0 mm
20:39 8.8 °C 9.0 °C 1022.9 hPa SSW 11.9 km/h 16.9 km/h 98% 0.0 mm
20:43 8.8 °C 9.0 °C 1021.9 hPa SSW 12.6 km/h 16.9 km/h 98% 0.0 mm
20:47 8.8 °C 9.0 °C 1021.9 hPa WSW 8.7 km/h 21.2 km/h 98% 0.0 mm
20:50 8.8 °C 9.0 °C 1021.9 hPa SW 11.6 km/h 21.2 km/h 98% 0.0 mm
20:56 8.8 °C 9.0 °C 1021.9 hPa SW 13.7 km/h 16.9 km/h 98% 0.0 mm
21:01 8.8 °C 9.0 °C 1021.9 hPa SSW 14.0 km/h 17.7 km/h 98% 0.0 mm
21:03 8.8 °C 9.0 °C 1021.9 hPa WSW 12.2 km/h 17.7 km/h 98% 0.0 mm
21:08 8.8 °C 9.0 °C 1021.9 hPa WSW 12.6 km/h 16.9 km/h 98% 0.0 mm
21:10 8.8 °C 9.0 °C 1021.9 hPa SSW 9.3 km/h 16.3 km/h 98% 0.0 mm
21:15 8.9 °C 9.0 °C 1021.9 hPa SSW 12.6 km/h 20.9 km/h 98% 0.0 mm
21:19 8.9 °C 9.0 °C 1021.9 hPa SW 14.0 km/h 20.9 km/h 98% 0.0 mm
21:24 8.9 °C 9.0 °C 1021.9 hPa SW 20.1 km/h 20.1 km/h 98% 0.0 mm
21:27 9.0 °C 9.0 °C 1021.9 hPa SW 11.6 km/h 20.1 km/h 98% 0.0 mm
21:32 9.0 °C 9.0 °C 1021.9 hPa SSW 13.0 km/h 20.1 km/h 98% 0.0 mm
21:33 9.0 °C 9.0 °C 1021.9 hPa SW 12.2 km/h 20.1 km/h 98% 0.0 mm
21:34 9.0 °C 9.0 °C 1021.9 hPa SW 10.1 km/h 20.1 km/h 98% 0.0 mm
21:39 9.0 °C 9.0 °C 1021.9 hPa SW 13.7 km/h 19.8 km/h 98% 0.0 mm
21:44 9.1 °C 9.0 °C 1021.9 hPa SSW 12.6 km/h 19.8 km/h 98% 0.0 mm
21:49 9.1 °C 9.0 °C 1021.9 hPa SSW 12.2 km/h 19.8 km/h 98% 0.0 mm
21:54 9.0 °C 9.0 °C 1021.9 hPa SW 12.6 km/h 17.2 km/h 98% 0.0 mm
21:55 9.0 °C 9.0 °C 1021.9 hPa WSW 12.2 km/h 17.2 km/h 98% 0.0 mm
21:59 9.0 °C 9.0 °C 1020.9 hPa SSW 11.6 km/h 15.8 km/h 98% 0.0 mm
22:04 9.0 °C 9.0 °C 1020.9 hPa SSW 15.8 km/h 20.9 km/h 98% 0.0 mm
22:09 9.0 °C 9.0 °C 1020.9 hPa WSW 13.7 km/h 20.9 km/h 98% 0.0 mm
22:14 9.0 °C 9.0 °C 1021.9 hPa SSW 20.6 km/h 20.9 km/h 98% 0.0 mm
22:15 9.0 °C 9.0 °C 1021.9 hPa SW 13.0 km/h 20.9 km/h 98% 0.0 mm
22:17 9.0 °C 9.0 °C 1021.9 hPa SSW 12.6 km/h 20.9 km/h 98% 0.0 mm
22:21 9.0 °C 9.0 °C 1021.9 hPa WSW 11.6 km/h 20.6 km/h 98% 0.0 mm
22:27 9.0 °C 9.0 °C 1021.9 hPa SW 13.0 km/h 20.6 km/h 98% 0.0 mm
22:31 9.0 °C 9.0 °C 1021.9 hPa WSW 13.0 km/h 20.6 km/h 98% 0.0 mm
22:36 9.1 °C 9.0 °C 1021.9 hPa SSW 13.7 km/h 20.6 km/h 98% 0.0 mm
22:41 9.1 °C 9.0 °C 1020.9 hPa SW 13.7 km/h 20.6 km/h 98% 0.0 mm
22:44 9.1 °C 9.0 °C 1020.9 hPa SSW 15.8 km/h 20.6 km/h 98% 0.0 mm
22:48 9.1 °C 9.0 °C 1020.9 hPa SW 12.2 km/h 16.9 km/h 98% 0.0 mm
22:53 9.1 °C 9.0 °C 1020.9 hPa SSW 10.5 km/h 19.8 km/h 98% 0.0 mm
22:56 9.1 °C 9.0 °C 1020.9 hPa SW 9.3 km/h 19.8 km/h 98% 0.0 mm
22:59 9.1 °C 9.0 °C 1020.9 hPa SW 12.2 km/h 19.8 km/h 98% 0.0 mm
23:04 9.1 °C 9.0 °C 1020.9 hPa SW 16.9 km/h 17.7 km/h 98% 0.0 mm
23:06 9.1 °C 9.0 °C 1020.9 hPa SW 17.7 km/h 17.7 km/h 98% 0.0 mm
23:11 9.1 °C 9.0 °C 1020.9 hPa SSW 12.6 km/h 17.7 km/h 98% 0.0 mm
23:16 9.1 °C 9.0 °C 1020.9 hPa WSW 11.9 km/h 17.7 km/h 98% 0.0 mm
23:17 9.1 °C 9.0 °C 1020.9 hPa SW 10.5 km/h 17.7 km/h 98% 0.0 mm
23:19 9.1 °C 9.0 °C 1020.9 hPa WSW 10.5 km/h 17.7 km/h 98% 0.0 mm
23:24 9.1 °C 9.0 °C 1020.9 hPa SW 17.7 km/h 17.7 km/h 98% 0.0 mm
23:29 9.1 °C 9.0 °C 1020.9 hPa WSW 15.4 km/h 20.1 km/h 98% 0.0 mm
23:32 9.1 °C 9.0 °C 1020.9 hPa WSW 12.6 km/h 20.1 km/h 98% 0.0 mm
23:37 9.2 °C 9.0 °C 1020.9 hPa WSW 13.0 km/h 20.1 km/h 98% 0.0 mm
23:39 9.2 °C 9.0 °C 1020.9 hPa SW 11.6 km/h 16.6 km/h 98% 0.0 mm
23:40 9.2 °C 9.0 °C 1020.9 hPa SW 17.7 km/h 20.9 km/h 98% 0.0 mm
23:45 9.2 °C 9.0 °C 1019.9 hPa SW 11.9 km/h 21.6 km/h 98% 0.0 mm
23:46 9.2 °C 9.0 °C 1019.9 hPa SW 16.3 km/h 21.6 km/h 98% 0.0 mm
23:52 9.2 °C 9.0 °C 1019.9 hPa WSW 15.1 km/h 21.6 km/h 98% 0.0 mm
23:57 9.2 °C 9.0 °C 1019.9 hPa SW 13.7 km/h 16.9 km/h 98% 0.0 mm
23:59 9.2 °C 9.0 °C 1019.9 hPa SW 14.3 km/h 16.9 km/h 98% 0.0 mm
Données Historique de Météo Turbie

Mise a jour : 24/05/2018 10:14:16
Généré par Cumulus 1.9.4 (1099)